Temp
10 10 11 11 11 12 12 12 13 13 13 13 13 13 13 12 12 13 13 13 13 12 11 10 9 9 8 8 8 8 8 8 8 8 8 8 8 8 8 8 8 8 8 8 8 8 8 8 8
10 10 10 10 11 11 12 12 13 13 13 13 13 13 12 12 12 13 13 13 13 12 11 10 9 9 9 9 8 8 8 8 8 8 8 8 8 8 7 7 7 7 7 7 7 7 7 7 7
10 10 10 10 11 12 12 12 12 12 13 13 14 13 12 12 13 13 13 13 13 12 11 11 10 9 9 9 9 8 8 8 8 8 7 7 7 7 7 7 7 7 7 7 7 7 7 7 7
10 10 10 10 11 11 11 11 12 12 12 13 13 13 13 13 13 13 12 12 13 12 11 10 10 10 9 9 9 8 8 8 8 8 8 8 8 7 7 7 7 7 7 7 7 7 7 7 7
9 9 9 9 10 11 11 11 12 12 11 12 13 14 14 13 13 13 12 12 12 12 11 11 10 10 9 9 9 8 8 8 8 8 8 8 8 8 8 7 7 7 7 7 7 7 7 7 7
9 9 9 9 10 11 10 11 12 12 12 12 12 13 13 13 12 12 12 11 12 12 11 10 10 10 9 9 9 8 8 8 8 8 8 8 8 7 7 7 7 7 7 7 7 7 7 7 7
9 9 9 9 10 10 10 11 11 11 12 11 12 12 12 12 12 12 12 11 11 11 11 10 10 9 9 9 8 8 8 8 8 8 8 8 8 8 7 7 7 7 7 7 7 7 7 7 7
9 8 8 9 10 10 10 10 10 9 10 11 11 11 12 12 12 12 12 12 11 11 11 10 10 9 9 9 8 8 8 8 8 8 8 8 7 7 7 7 7 7 7 7 7 7 7 7 7
8 8 8 8 9 9 10 10 10 10 10 10 11 11 12 11 12 12 12 12 11 11 10 10 10 9 9 9 8 8 8 8 8 8 8 7 7 7 7 7 7 7 7 7 7 7 7 7 7
8 9 9 8 8 9 9 10 10 10 11 11 11 11 11 11 12 11 11 11 11 11 10 10 9 9 8 8 8 8 8 8 7 7 7 7 7 7 6 6 6 7 7 7 7 7 7 7 7
8 9 8 8 8 9 9 9 10 10 11 12 12 12 12 11 11 11 11 11 11 10 10 9 9 9 8 8 8 8 7 7 7 7 7 7 7 7 6 6 6 6 7 7 6 6 6 6 6
8 8 8 8 7 8 9 9 9 10 10 11 12 11 10 11 11 11 11 11 10 10 10 9 9 8 8 8 8 8 7 7 7 7 6 6 6 6 6 6 6 6 6 6 6 6 6 6 6
7 8 7 7 8 8 8 8 8 9 10 11 10 10 10 10 11 10 10 10 10 10 10 9 9 8 8 8 7 7 7 7 6 6 6 6 6 6 6 6 6 6 6 5 5 5 5 5 5
7 7 8 7 8 7 7 9 8 9 9 10 10 10 10 10 10 10 10 10 10 10 9 9 8 8 8 7 7 7 7 6 6 6 6 6 5 5 5 5 5 5 5 5 5 5 5 5 5
6 7 8 8 8 7 8 7 8 9 9 9 9 10 10 10 10 10 10 10 10 9 9 9 8 8 8 7 7 6 6 6 6 5 5 5 5 5 5 5 5 5 5 4 4 4 5 5 5
5 5 6 8 8 8 7 7 8 8 8 9 9 9 10 10 10 10 10 10 9 9 9 8 8 8 7 7 6 6 6 6 5 5 5 5 5 5 4 4 4 4 4 4 4 4 4 4 4
4 4 5 7 8 7 6 6 6 7 7 8 8 8 9 9 9 10 9 9 9 9 8 8 8 7 7 7 6 6 5 5 5 5 4 4 4 4 4 4 4 4 3 3 3 3 3 3 3
5 4 5 6 7 6 5 5 5 6 7 7 8 8 8 9 9 9 9 9 9 8 8 8 8 7 7 6 6 6 5 5 5 4 4 4 4 4 3 3 3 3 3 2 2 2 2 2 2
5 4 3 6 7 4 5 5 5 6 6 6 7 7 8 9 9 9 9 9 8 8 8 8 8 7 7 7 6 6 5 5 4 4 4 3 3 3 3 3 3 2 2 2 2 2 2 2 2
4 4 4 4 6 4 5 4 5 6 6 6 7 7 7 8 8 8 9 8 8 8 8 8 7 7 7 6 6 5 4 4 3 3 3 3 3 2 2 2 2 1 1 1 1 1 1 1 1
3 3 4 3 4 4 4 4 6 6 6 7 7 7 7 7 7 8 8 8 8 8 8 8 7 7 6 6 5 5 5 4 4 3 3 2 2 2 1 1 1 1 1 1 0 1 1 -0 0
3 4 4 3 3 3 3 4 4 4 6 6 7 7 7 8 8 8 8 8 8 9 8 7 7 7 6 6 5 5 4 3 2 2 2 2 1 1 1 0 0 0 0 -0 -0 -0 -0 -1 -1
3 3 3 2 2 2 3 2 5 5 5 6 7 7 7 7 7 8 8 8 8 7 6 6 8 6 6 6 5 5 4 3 2 2 1 1 1 0 0 -0 -0 -0 -1 -1 -1 -1 -2 -2 -1
1 2 2 2 2 3 3 3 5 5 6 6 7 6 6 6 7 7 7 7 8 7 7 6 6 6 5 5 5 4 3 3 2 1 1 1 0 -0 -0 -1 -1 -1 -1 -1 -2 -2 -2 -2 -2
1 0 1 2 2 4 4 4 5 5 6 5 6 6 6 6 6 6 7 7 7 7 7 7 6 5 5 4 4 4 3 2 1 1 0 0 -0 -1 -1 -1 -1 -2 -2 -2 -2 -3 -2 -3 -3
0 0 -1 0 3 4 3 4 5 5 5 6 6 6 6 6 7 7 7 7 7 7 7 6 6 6 5 4 4 3 3 2 2 1 0 -0 -1 -1 -1 -1 -2 -2 -3 -3 -3 -3 -3 -3 -3
0 1 0 -0 0 1 2 3 4 4 4 4 5 5 5 5 6 6 6 6 6 6 6 5 5 5 4 3 2 3 2 2 1 0 -0 -1 -1 -1 -2 -2 -2 -3 -3 -3 -4 -4 -4 -4 -4
-2 -2 -2 -1 0 1 3 2 4 2 2 2 3 4 3 3 4 5 6 6 6 6 6 5 4 3 2 2 1 2 1 1 0 0 -0 -1 -2 -1 -1 -3 -3 -3 -3 -4 -4 -4 -5 -5 -5
-4 -4 -3 -3 -2 -0 2 3 0 1 1 1 1 1 2 2 3 3 4 5 5 5 5 5 4 3 1 1 0 1 1 0 -1 -2 -2 -3 -3 -2 -3 -3 -4 -4 -4 -4 -5 -5 -5 -5 -6
-5 -5 -4 -4 -5 -5 -4 -1 1 1 -0 -1 -0 0 0 1 2 2 2 3 4 3 4 4 4 3 1 -0 -0 -0 -0 -2 -1 -2 -3 -3 -3 -3 -4 -4 -4 -4 -4 -5 -6 -5 -5 -6 -6
Height
3150 3150 3151 3151 3156 3151 3149 3151 3150 3152 3153 3154 3155 3157 3157 3160 3162 3166 3163 3165 3166 3167 3168 3169 3170 3172 3173 3172 3173 3173 3173 3173 3174 3174 3175 3175 3175 3175 3175 3174 3174 3173 3173 3173 3172 3173 3172 3171 3170
3149 3149 3150 3150 3151 3148 3148 3148 3149 3150 3151 3151 3152 3153 3156 3158 3160 3161 3162 3164 3164 3166 3167 3168 3169 3170 3171 3171 3172 3173 3173 3173 3173 3173 3173 3174 3174 3174 3173 3173 3172 3172 3171 3171 3171 3170 3170 3169 3168
3148 3148 3149 3148 3147 3147 3147 3146 3147 3147 3148 3148 3149 3150 3154 3155 3157 3159 3161 3162 3163 3164 3165 3167 3168 3169 3170 3170 3171 3171 3172 3172 3172 3172 3172 3172 3171 3171 3170 3170 3170 3170 3169 3170 3169 3168 3168 3167 3166
3146 3147 3148 3145 3145 3145 3145 3145 3145 3144 3145 3146 3146 3149 3151 3153 3155 3159 3160 3161 3161 3163 3164 3166 3166 3167 3168 3169 3169 3170 3170 3171 3171 3171 3170 3170 3170 3169 3168 3168 3168 3167 3167 3167 3167 3166 3165 3164 3164
3144 3144 3144 3142 3143 3143 3143 3143 3141 3141 3143 3144 3145 3146 3148 3151 3155 3156 3158 3160 3161 3162 3163 3165 3165 3166 3167 3167 3168 3168 3168 3169 3169 3169 3169 3169 3168 3167 3166 3166 3165 3165 3165 3164 3164 3163 3162 3161 3161
3142 3142 3141 3140 3140 3141 3141 3139 3138 3139 3139 3143 3143 3145 3147 3150 3153 3155 3156 3158 3159 3160 3162 3163 3164 3164 3165 3166 3166 3167 3167 3167 3167 3167 3167 3167 3166 3166 3165 3164 3164 3163 3163 3162 3161 3161 3160 3159 3159
3140 3139 3137 3137 3138 3139 3139 3138 3136 3138 3138 3140 3142 3143 3146 3148 3150 3151 3153 3155 3157 3159 3161 3162 3162 3163 3163 3164 3164 3165 3165 3165 3165 3165 3165 3165 3165 3164 3164 3163 3163 3162 3161 3161 3160 3159 3159 3158 3158
3137 3137 3134 3134 3136 3136 3137 3136 3136 3137 3138 3139 3140 3141 3144 3146 3147 3149 3150 3152 3154 3156 3158 3159 3160 3161 3161 3162 3162 3162 3163 3163 3163 3163 3164 3164 3164 3164 3163 3162 3162 3161 3160 3159 3158 3158 3157 3157 3156
3134 3134 3130 3131 3133 3133 3134 3134 3134 3135 3135 3136 3137 3139 3141 3143 3144 3146 3147 3149 3151 3153 3155 3156 3157 3158 3159 3160 3160 3159 3160 3160 3161 3161 3161 3161 3161 3161 3160 3159 3159 3158 3157 3156 3156 3155 3155 3154 3153
3130 3128 3127 3128 3129 3129 3131 3131 3131 3131 3131 3132 3134 3135 3137 3139 3141 3143 3144 3146 3148 3150 3152 3153 3154 3154 3156 3157 3158 3157 3157 3158 3158 3159 3159 3159 3158 3158 3158 3157 3156 3155 3155 3154 3153 3152 3152 3151 3150
3124 3124 3125 3125 3126 3125 3125 3126 3126 3127 3126 3129 3130 3130 3132 3135 3137 3139 3141 3142 3145 3147 3148 3149 3150 3151 3152 3153 3154 3155 3154 3155 3155 3156 3156 3156 3156 3155 3155 3154 3153 3153 3152 3151 3150 3149 3148 3146 3145
3120 3120 3120 3120 3120 3120 3120 3120 3120 3120 3123 3123 3124 3125 3127 3131 3134 3135 3137 3138 3140 3142 3144 3146 3146 3147 3148 3149 3150 3151 3151 3151 3152 3152 3153 3153 3153 3152 3152 3151 3150 3150 3149 3148 3147 3146 3145 3143 3141
3115 3116 3114 3114 3112 3113 3114 3114 3113 3114 3117 3118 3118 3120 3123 3126 3128 3130 3132 3133 3135 3138 3141 3141 3142 3143 3144 3145 3146 3146 3147 3148 3148 3149 3149 3149 3149 3149 3148 3148 3147 3146 3146 3145 3143 3142 3140 3138 3137
3111 3109 3108 3108 3107 3106 3106 3108 3107 3110 3112 3113 3114 3115 3118 3121 3124 3126 3127 3129 3130 3133 3135 3136 3137 3138 3139 3140 3141 3141 3142 3144 3144 3145 3145 3145 3145 3145 3144 3143 3143 3142 3142 3140 3139 3138 3136 3134 3132
3104 3103 3102 3102 3102 3100 3101 3098 3098 3105 3106 3108 3110 3111 3112 3115 3117 3121 3122 3124 3126 3127 3129 3131 3133 3134 3134 3135 3136 3137 3137 3139 3139 3140 3140 3140 3140 3140 3140 3140 3139 3138 3137 3137 3136 3134 3132 3130 3128
3099 3099 3096 3096 3096 3095 3095 3092 3095 3098 3100 3102 3104 3105 3107 3108 3111 3113 3115 3117 3120 3121 3124 3125 3127 3128 3129 3130 3131 3132 3132 3134 3135 3135 3136 3136 3136 3136 3136 3135 3134 3133 3132 3131 3130 3129 3127 3125 3122
3092 3092 3092 3091 3090 3088 3088 3087 3090 3091 3093 3094 3096 3098 3100 3102 3104 3107 3109 3111 3113 3115 3117 3119 3121 3122 3123 3124 3125 3126 3127 3128 3129 3130 3130 3130 3131 3131 3131 3130 3129 3128 3127 3126 3126 3124 3122 3120 3117
3084 3087 3086 3085 3083 3081 3081 3082 3084 3085 3086 3087 3088 3090 3092 3095 3099 3100 3102 3104 3105 3107 3110 3112 3114 3115 3116 3117 3119 3120 3121 3123 3124 3124 3125 3126 3126 3126 3126 3125 3124 3123 3122 3120 3119 3118 3117 3115 3112
3082 3081 3081 3079 3079 3074 3074 3075 3078 3080 3079 3079 3080 3082 3084 3087 3092 3092 3093 3096 3098 3099 3102 3104 3106 3107 3109 3111 3112 3113 3115 3117 3117 3118 3119 3120 3120 3119 3119 3118 3117 3116 3115 3114 3114 3112 3111 3108 3106
3077 3074 3073 3072 3074 3069 3067 3065 3068 3071 3070 3072 3073 3074 3076 3079 3079 3082 3084 3086 3088 3091 3093 3095 3098 3100 3102 3104 3106 3107 3109 3109 3111 3111 3112 3113 3113 3113 3113 3112 3112 3111 3110 3108 3107 3106 3105 3103 3099
3071 3069 3068 3068 3067 3063 3060 3054 3058 3062 3063 3065 3066 3067 3069 3070 3072 3074 3076 3077 3080 3081 3084 3086 3089 3092 3095 3097 3098 3099 3100 3101 3103 3104 3106 3106 3106 3106 3106 3106 3106 3105 3103 3102 3101 3099 3098 3095 3092
3062 3065 3064 3064 3065 3061 3060 3048 3052 3054 3055 3057 3058 3059 3060 3063 3065 3067 3068 3068 3070 3072 3074 3078 3081 3084 3087 3089 3089 3091 3093 3095 3097 3097 3098 3099 3099 3100 3100 3099 3099 3098 3097 3096 3094 3092 3090 3087 3084
3057 3060 3059 3059 3059 3057 3057 3054 3042 3047 3047 3049 3050 3051 3052 3055 3056 3057 3058 3060 3061 3062 3065 3069 3073 3075 3078 3080 3081 3082 3084 3086 3087 3088 3090 3091 3092 3093 3093 3093 3092 3092 3090 3089 3087 3086 3083 3080 3077
3054 3054 3053 3054 3055 3046 3049 3052 3034 3041 3043 3044 3045 3045 3045 3046 3047 3047 3048 3049 3051 3052 3054 3058 3061 3064 3068 3070 3072 3074 3076 3077 3078 3080 3083 3084 3085 3085 3085 3086 3086 3085 3083 3081 3080 3079 3076 3074 3071
3047 3048 3049 3048 3046 3033 3040 3041 3032 3039 3039 3035 3036 3036 3036 3037 3037 3037 3039 3041 3042 3044 3045 3047 3049 3053 3057 3060 3064 3066 3068 3069 3071 3073 3075 3076 3077 3077 3078 3078 3078 3077 3076 3074 3073 3070 3069 3066 3063
3042 3042 3044 3039 3035 3032 3036 3026 3029 3029 3031 3031 3032 3031 3031 3030 3030 3030 3031 3032 3033 3035 3036 3038 3041 3044 3047 3050 3055 3058 3059 3061 3063 3064 3067 3068 3069 3069 3070 3070 3070 3070 3068 3067 3065 3063 3061 3060 3057
3032 3035 3038 3038 3035 3037 3024 3019 3025 3024 3023 3024 3025 3024 3024 3024 3023 3025 3025 3025 3025 3026 3028 3029 3030 3032 3036 3041 3046 3049 3051 3053 3055 3057 3058 3059 3060 3061 3062 3062 3062 3061 3060 3059 3057 3057 3054 3053 3050
3028 3029 3030 3028 3023 3021 3011 3015 3015 3017 3017 3017 3016 3017 3017 3017 3017 3018 3019 3019 3019 3018 3019 3019 3019 3021 3028 3032 3037 3041 3044 3046 3046 3047 3049 3051 3052 3053 3053 3054 3055 3052 3052 3050 3049 3049 3047 3045 3044
3022 3022 3023 3020 3018 3012 3005 3005 3007 3011 3012 3012 3013 3013 3013 3012 3012 3011 3010 3011 3011 3011 3010 3010 3010 3011 3015 3020 3027 3031 3035 3037 3037 3038 3040 3041 3042 3042 3045 3046 3046 3045 3043 3042 3042 3041 3038 3038 3037
3023 3021 3021 3018 3018 3016 3014 3006 3004 3004 3008 3010 3011 3012 3012 3009 3008 3007 3006 3005 3004 3002 3002 3001 3001 3002 3005 3010 3016 3021 3024 3025 3025 3028 3029 3030 3032 3034 3036 3037 3038 3036 3036 3036 3035 3033 3031 3030 3028
Wind_Speed
10 9 9 6 6 8 9 7 9 11 13 16 20 24 26 26 27 14 6 13 15 15 15 12 10 8 8 6 5 4 4 5 6 7 7 8 8 8 8 9 9 10 10 11 10 11 12 12 12
12 11 9 7 8 10 5 8 9 11 12 9 17 21 23 28 23 19 11 13 16 15 14 12 10 9 7 5 4 4 5 6 7 8 8 9 9 9 9 9 10 10 10 10 10 10 11 11 12
12 11 10 5 10 11 5 7 5 12 15 12 15 19 21 28 23 23 13 12 18 17 14 10 9 9 7 4 4 4 5 6 7 8 8 9 9 9 9 10 10 11 12 12 11 11 11 12 12
13 12 10 12 14 9 12 8 9 13 16 16 16 19 24 26 26 17 17 13 18 17 14 12 10 8 5 3 4 6 6 6 7 9 9 10 9 10 9 9 9 9 9 10 10 11 11 11 11
13 14 12 13 12 12 10 13 16 13 16 18 19 19 20 25 21 20 19 18 19 18 15 13 10 7 5 5 6 7 8 8 8 8 6 6 5 5 5 6 6 6 6 6 7 8 9 10 10
14 14 14 16 13 12 9 14 16 13 15 20 19 20 24 21 21 20 18 18 21 18 17 15 11 8 7 6 6 8 8 7 6 5 5 5 5 5 6 6 6 6 6 6 6 7 7 8 9
14 14 19 19 17 12 9 9 6 10 14 22 21 25 26 24 18 19 19 23 23 20 19 16 12 10 8 8 7 8 8 5 4 5 4 5 6 6 6 6 6 6 7 7 8 8 10 11 13
16 15 19 18 16 15 11 11 4 11 13 16 24 28 24 20 18 15 19 22 24 22 21 17 14 11 9 10 8 8 7 6 5 4 5 6 6 7 7 8 8 9 10 10 11 12 13 13 15
18 20 23 19 16 14 12 13 10 12 19 22 20 25 26 23 17 18 17 20 24 24 23 19 15 12 11 11 9 8 8 7 7 7 7 7 7 8 8 9 10 11 12 13 13 14 14 16 18
19 24 25 19 15 19 18 19 18 17 19 23 27 26 29 23 18 15 15 20 22 23 21 18 16 14 13 12 11 10 10 9 9 9 9 9 9 10 11 12 13 13 14 14 14 15 16 19 22
22 27 25 23 18 16 18 19 22 20 21 24 22 29 28 27 23 15 14 17 22 21 21 20 19 16 15 13 13 13 12 12 12 11 11 11 10 11 12 13 14 15 15 16 17 17 19 22 25
24 25 24 27 24 24 25 27 27 25 18 19 24 30 30 29 25 17 16 17 21 24 22 22 20 18 16 16 15 14 15 15 14 14 13 13 12 12 13 14 16 18 19 19 19 20 22 25 28
24 24 24 25 28 28 28 29 29 27 20 18 20 22 27 25 25 20 18 20 21 23 23 24 22 19 19 18 18 16 17 18 17 17 15 15 14 14 14 16 17 19 20 20 20 22 24 26 28
26 27 28 28 28 27 28 29 31 29 24 20 20 21 22 25 27 23 19 20 21 21 24 25 24 22 21 20 21 18 19 20 21 19 18 17 17 16 16 17 18 20 20 20 21 23 25 27 28
24 27 26 28 27 26 23 29 35 29 27 25 23 22 23 25 26 22 20 20 18 17 22 26 26 24 23 23 23 22 22 23 24 22 21 20 19 19 19 19 20 21 22 22 23 24 26 27 29
28 28 31 23 21 20 20 22 21 27 31 27 28 27 27 26 25 26 24 24 23 21 24 27 28 28 26 26 25 26 25 26 26 25 24 23 22 22 22 21 21 22 22 22 23 24 25 27 29
24 21 27 28 24 23 20 17 14 15 23 29 32 29 26 27 27 24 24 26 27 27 28 30 31 31 28 28 29 29 28 28 29 28 27 26 25 25 24 23 23 23 23 22 22 23 24 27 28
17 18 20 21 17 15 14 16 15 19 25 27 30 33 32 29 23 23 25 28 30 31 31 33 33 34 31 30 30 31 31 31 30 30 30 28 27 27 26 25 25 24 23 22 22 23 24 25 27
24 26 26 27 23 29 29 32 29 26 30 29 29 32 35 37 31 31 30 30 31 33 33 32 37 35 31 30 30 31 31 32 32 32 32 31 30 28 27 27 26 24 23 22 22 23 25 27 28
26 25 29 31 24 26 29 34 32 30 30 31 28 26 31 32 35 36 37 35 35 33 35 36 36 34 32 32 31 31 33 34 35 35 34 33 31 30 29 27 26 24 23 23 23 24 25 26 26
30 30 30 29 29 30 30 36 31 28 30 31 31 32 31 29 29 31 33 34 35 37 38 39 37 36 35 33 32 33 35 37 37 36 35 34 32 31 29 27 26 24 23 23 23 25 28 26 28
31 28 27 24 21 18 11 15 27 28 32 30 30 30 28 30 31 32 32 34 34 35 38 40 39 39 36 34 33 33 33 33 33 34 36 35 33 31 29 27 24 24 23 22 23 26 28 27 28
30 26 25 22 23 26 21 19 21 16 22 31 29 23 20 26 31 33 32 34 37 39 41 38 37 42 39 36 34 33 32 33 36 38 37 36 33 31 29 26 24 24 22 23 24 27 26 28 30
25 21 18 18 18 17 23 18 18 14 7 7 10 6 9 13 15 20 28 31 35 35 38 43 44 44 43 39 36 34 32 34 35 35 35 34 33 31 29 26 25 23 23 24 26 27 28 28 30
22 13 3 6 7 12 10 14 25 18 14 14 16 13 12 12 13 14 16 21 30 32 35 42 45 47 46 43 39 35 32 31 31 32 33 34 33 31 28 27 25 23 24 24 27 26 29 29 30
30 27 8 4 5 7 10 12 8 9 6 8 11 13 17 20 22 22 22 19 15 21 27 32 39 45 48 46 41 37 34 31 29 30 32 33 32 30 29 28 26 26 24 26 27 27 28 29 30
15 26 28 34 39 20 22 26 19 21 21 22 20 24 24 26 30 28 20 20 17 14 17 26 37 43 47 48 43 40 36 32 29 28 29 31 31 30 29 30 28 25 25 28 28 28 28 29 29
8 9 8 14 6 9 8 12 10 9 7 6 11 19 19 21 23 24 27 28 27 25 25 24 29 38 43 47 43 41 37 32 29 27 29 31 30 29 34 32 29 25 27 29 28 29 28 29 30
13 10 6 6 6 3 6 5 14 11 5 7 11 12 13 14 15 18 25 32 34 36 35 32 27 29 37 42 42 42 37 33 30 32 31 30 29 35 33 31 29 28 29 28 29 29 28 29 29
13 13 14 5 6 8 6 6 14 9 10 25 27 26 23 23 23 23 20 20 23 22 26 28 27 25 28 37 41 43 39 37 32 28 30 32 35 34 33 31 30 29 29 29 28 28 28 29 28
Wind_Direction
285 285 276 257 234 230 233 221 209 207 224 226 226 223 221 213 216 200 214 211 201 197 196 192 188 200 215 222 232 255 273 278 280 281 288 294 296 301 305 307 311 313 313 314 317 322 325 325 327
284 288 288 264 245 242 240 207 227 224 214 242 224 222 216 215 215 223 246 226 203 205 206 198 193 209 219 224 241 273 286 284 278 278 279 280 283 286 289 291 292 293 294 294 300 304 308 314 318
286 288 290 263 245 247 221 199 260 246 223 220 209 215 208 212 213 220 247 233 209 211 210 202 196 208 218 231 273 286 285 288 288 285 281 276 273 273 275 277 280 284 288 297 300 305 308 310 312
290 287 284 257 257 260 252 276 279 266 223 206 191 192 202 208 215 229 248 241 212 215 211 201 197 211 227 257 280 291 294 287 283 281 282 286 289 290 293 296 299 301 304 305 304 303 305 305 307
284 282 275 266 270 272 273 278 275 252 234 200 196 206 210 212 219 239 249 243 216 212 212 204 199 213 233 259 284 292 291 297 302 300 297 296 304 308 314 315 312 308 304 303 303 305 306 305 307
277 274 269 274 278 278 294 286 265 236 229 209 208 216 215 214 229 252 247 236 226 216 215 207 205 212 232 256 284 292 289 292 292 299 308 318 321 327 328 322 316 310 308 308 309 310 310 312 313
273 269 268 270 277 277 263 299 280 225 231 225 223 218 218 223 236 250 238 233 228 222 218 211 208 218 237 260 276 288 280 269 276 293 304 317 323 330 318 310 307 311 311 310 305 306 307 311 314
271 267 267 272 277 272 254 273 306 244 249 238 230 225 224 230 245 224 229 232 222 222 217 214 213 224 240 256 269 282 267 256 261 270 288 301 310 312 312 311 312 317 312 310 311 311 311 315 318
265 264 266 268 277 279 242 250 272 269 245 232 225 228 229 237 240 216 226 232 227 222 218 217 217 225 241 255 265 267 257 253 255 263 272 285 300 312 316 318 318 317 316 314 310 310 314 316 318
261 262 268 273 271 266 252 249 264 270 252 240 240 243 236 245 241 233 233 228 235 228 223 221 222 225 235 254 266 263 249 244 250 262 275 286 305 315 321 324 324 322 318 315 311 309 309 311 314
266 262 267 268 261 256 261 261 253 260 251 244 249 248 242 245 248 246 240 226 227 230 227 224 224 228 238 247 258 265 246 241 249 261 273 282 295 306 319 324 322 318 315 309 305 306 309 312 314
266 263 267 268 261 259 259 266 270 261 264 239 240 241 240 246 249 253 250 232 226 230 231 230 228 233 242 252 253 260 251 243 250 258 267 275 285 299 312 319 321 318 312 306 305 307 309 312 314
269 269 263 263 265 262 258 258 269 266 258 239 234 236 239 236 232 242 238 226 226 234 237 234 233 236 243 251 253 257 256 250 250 257 266 273 280 292 304 311 313 312 308 304 304 307 310 312 312
275 269 266 262 262 265 263 257 259 261 255 248 246 242 237 238 240 240 239 227 228 237 239 237 237 240 246 251 256 255 256 255 255 257 264 270 277 285 293 300 306 308 306 303 303 304 307 310 312
271 271 266 267 271 273 274 257 253 257 256 250 245 244 241 238 237 240 241 233 227 232 239 240 240 242 248 251 255 256 254 254 256 259 263 269 276 282 289 297 304 309 307 302 302 306 309 310 313
268 272 274 265 273 276 277 265 270 256 253 253 249 246 241 239 240 241 243 239 229 232 234 237 238 243 247 251 252 254 253 254 257 260 263 269 275 280 286 294 298 301 301 299 301 305 310 313 314
264 261 268 280 273 274 267 266 265 245 238 245 248 248 244 240 237 238 241 239 234 234 235 237 239 243 246 250 251 252 252 253 256 259 262 266 271 277 283 288 293 297 299 299 302 308 313 315 315
257 261 271 269 273 269 255 255 245 240 243 248 250 249 248 246 239 239 242 241 238 238 238 239 241 243 245 249 250 252 254 255 257 259 261 266 271 276 281 287 291 295 297 300 306 312 314 315 316
270 269 269 266 267 281 274 277 271 262 256 253 254 253 252 252 250 243 238 239 240 244 244 248 243 244 249 253 254 255 256 257 257 260 262 264 268 274 279 283 288 293 297 302 308 313 318 319 318
258 260 266 275 277 287 285 284 274 262 252 250 249 243 250 251 241 238 239 240 242 244 246 247 246 247 251 252 253 254 253 254 255 257 260 263 267 273 278 283 289 293 296 300 308 315 317 315 317
253 255 265 274 288 284 289 287 283 279 270 262 257 253 246 243 242 239 237 241 244 246 249 250 248 249 251 253 252 251 251 252 255 258 261 263 267 271 277 282 286 290 294 301 310 314 313 317 320
253 254 267 275 280 285 281 286 279 280 286 275 269 261 258 253 252 247 243 247 249 257 250 252 256 254 252 253 255 254 255 257 258 258 257 260 264 269 273 278 283 287 292 301 307 311 314 320 324
251 259 271 271 269 281 273 275 281 284 283 290 289 275 270 259 257 252 252 254 258 257 251 248 251 255 254 255 256 253 252 253 251 251 254 259 263 266 271 276 281 285 292 301 308 310 316 323 322
253 245 250 255 266 264 266 244 302 276 320 344 359 327 282 265 262 264 254 254 254 255 247 247 248 252 253 254 255 253 251 251 251 254 257 259 262 266 269 275 280 284 294 301 306 309 316 318 320
222 224 241 240 215 256 270 248 260 280 284 252 251 237 222 236 251 274 273 269 257 259 258 249 249 251 253 252 254 252 251 251 249 250 253 256 260 262 267 273 276 283 291 299 301 308 312 318 317
247 243 237 244 229 289 276 247 250 183 209 241 237 248 262 253 263 275 271 254 256 259 258 260 260 258 256 255 254 252 249 247 245 246 251 255 256 259 265 269 274 279 288 294 299 305 311 313 315
237 224 250 238 252 274 253 259 250 247 258 258 258 262 271 274 272 268 257 250 250 259 272 265 259 256 255 253 251 250 246 242 242 246 250 252 254 259 262 267 266 274 287 292 299 301 306 309 312
176 211 212 198 213 213 239 230 216 183 198 224 242 254 270 271 272 262 260 263 262 263 271 275 263 257 256 254 251 248 244 241 240 243 249 250 253 261 263 259 264 273 283 292 293 295 301 306 308
305 302 252 259 261 262 260 216 174 152 100 357 336 318 313 311 303 289 271 269 272 274 276 272 268 258 250 248 245 244 240 239 240 244 247 248 254 251 252 257 263 270 287 285 287 292 300 302 304
282 279 268 310 20 329 298 272 191 202 321 337 323 311 314 301 290 292 290 285 276 276 271 264 262 257 248 241 239 239 235 235 240 244 245 249 248 248 251 256 260 268 282 281 285 292 295 298 301